GOES 12

Satellite information

Favourite Embed

Satellite Type and Status

PAYLOADIN ORBIT

Key statistics

Satellite GOES 12 at a glance.

Uptime

8867

Days in orbit

Revolutions

≈ 1.0

Per day

Orbit

OTHER

Other

Inclination

11.8

Latest

Satellite identification and parameters

Extended collection of information and parameters for GOES 12.

Object identification

Identified? True

Debris? False

Object name: GOES 12

International designator: 2001-031A

Object number (NORAD): 26871

Object ID (CCSDS): 26871

Country: UNITED STATES OF AMERICA (US)

Current information (Y/N): Y

RCS size: LARGE

Orbital parameters

Period: 1452.573 minutes

Inclination: 11.7668 deg

SMA: 42486.609 km

Apoapsis: 36134.312 km

Periapsis: 36082.636 km

RAAN: 39.1779 deg

Eccentricy: 0.00060815

Argument of periapsis: 269.1935 deg

Mean anomaly: 98.7667 deg

Mean motion: 0.99134463 rev/day

Mean motion (dot): -0.00000018 rev/day2

B* drag term: 0.0 1/REarth

Two-line elements (TLE)

Creation date: Oct. 31, 2025, 3 a.m.

Reference frame: TEME

Reference center: EARTH

Epoch: Oct. 30, 2025, 6:33 p.m. UTC

TLE line 0: 0 GOES 12

TLE line 1: 1 26871U 01031A 25303.77316728 -.00000018 00000-0 00000-0 0 9993

TLE line 2: 2 26871 11.7668 39.1779 0006081 269.1935 98.7667 0.99134463 88492

Live tracking on map

Real-time ground track for satellite GOES 12.

In-orbit conjunctions

A list of the most updated potential collisions computed for object GOES 12.

Target Orbit TCA Probability of collision Miss distance Type
INTELSAT 709 OTHER 2025-06-16 10:49:27 TBA 3830.0 (m) PAYLOAD
SUPERBIRD 4 OTHER 2024-08-20 09:56:44 TBA 4539.0 (m) PAYLOAD

Associated space launch

The Geostationary Operational Environmental Satellites were developed by NASA-Goddard and were transferred to the NOAA weather agency when operational. In addition to the usual weather imager/sounder, GOES-M carried a new solar soft X-ray imager.

GOES 12 was lifted into orbit during the mission ‘Atlas IIA | GOES 12’, on board a Atlas IIA space rocket.

The launch took place on July 23, 2001, 7:23 a.m. from Launch Complex 36A.

For more information about the launch, click the button.

Launch to space Atlas IIA | GOES 12
Atlas IIA | GOES 12

Agency: N/A

Status: Launch Successful

Launch date: July 23, 2001, 7:23 a.m. UTC

Rocket: Atlas IIA

Launch pad: Launch Complex 36A

Location: Cape Canaveral SFS, FL, USA

...

Latest news about this satellite

There are no fresh news available about this satellite. Check back as we update our databases every day.


Newsletter sign-up

Weekly statistics, charts and insights to help you stay on top of the space industry.